Location: Brunembert
(50.7122°N, 1.8935°E)
Time: 08:56:49
(UTC+00:00)

Cosmos 482 Debris - Pass Details

Date: 22 April 2021
Orbit: 199 x 2135 km, 52.0° (Epoch: 05 May)

Event Time Altitude Azimuth Distance (km) Brightness Sun altitude
Rises 20:36:06 0° 279° (W) 2,065 8.3 -13.9°
Reaches altitude 10° 20:38:18 10° 283° (WNW) 1,060 6.8 -14.2°
Maximum altitude 20:40:29 57° 4° (N) 270 2.9 -14.4°
Enters shadow 20:40:42 51° 41° (NE) 286 2.9 -14.5°
